AirNav  
 
 1597 users online  

N24 Questa Municipal Airport Nr 2
Questa, New Mexico, USA

GOING TO QUESTA?


FAA INFORMATION EFFECTIVE 29 MARCH 2018

Location

FAA Identifier: N24
Lat/Long: 36-48-01.1000N / 105-35-51.0000W
36-48.018333N / 105-35.850000W
36.8003056 / -105.5975000
(estimated)
Elevation: 7689.6 ft. / 2344 m (estimated)
Variation: 11E (1985)
From city: 6 miles N of QUESTA, NM
Time zone: UTC -6 (UTC -7 during Standard Time)
Zip code: 87556

Airport Operations

Airport use: Open to the public
Activation date: 03/1991
Control tower: no
ARTCC: DENVER CENTER
FSS: ALBUQUERQUE FLIGHT SERVICE STATION
NOTAMs facility: ABQ (NOTAM-D service available)
Attendance: UNATNDD
Wind indicator: yes
Segmented circle: yes
Lights: ACTVT MIRL RY 17/35, REILS & PAPI RYS 17 & 35 - 123.6.

Airport Communications

CTAF: 122.9
WX AWOS-3: 118.2 (575-586-2019)

Nearby radio navigation aids

VOR radial/distance  VOR name  Freq  Var
TASr039/18.8TAOS VORTAC117.6013E
ALSr149/34.5ALAMOSA VORTAC113.9013E
CIMr285/39.5CIMARRON VORTAC116.4013E

Airport Services

Parking: tiedowns

Runway Information

Runway 17/35

Dimensions: 6861 x 75 ft. / 2091 x 23 m
Surface: asphalt, in good condition
Weight bearing capacity: 
PCN 3 /F/D/Y/T
Single wheel: 12.5
Runway edge lights: medium intensity
Gradient: S
RUNWAY 17  RUNWAY 35
Latitude: 36-48.582550N36-47.452383N
Longitude: 105-35.848317W105-35.850033W
Elevation: 7666.7 ft.7689.6 ft.
Gradient: 0.3% UP
Traffic pattern: leftleft
Runway heading: 169 magnetic, 180 true349 magnetic, 000 true
Markings: basic, in fair conditionbasic, in fair condition
Visual slope indicator: 4-light PAPI on right (3.00 degrees glide path)4-light PAPI on right (3.00 degrees glide path)
Runway end identifier lights: yesyes
Touchdown point: yes, no lightsyes, no lights

Airport Ownership and Management from official FAA records

Ownership: Publicly-owned
Owner: VILLAGE OF QUESTA
PO BOX 260
QUESTA, NM 87556
Phone 575-586-0694
Manager: JAMIE ARCHULETA
PO BOX 260
QUESTA, NM 87556
Phone 575-613-2853
EMERG CONTACT PH: 575-613-2855.

Airport Operational Statistics

Aircraft operations: 200/year *
100% transient general aviation
* for 12-month period ending 31 March 2016

Additional Remarks

A58-35 2-3 FT BRUSH 0-200 FT FM THLD 0B.
A58-17 +3 FT BRUSH 0-200 FT FM THLD BOTH SIDES.
ELK ON & INVOF ARPT.
FOR ACCESS ON & OFF AIRFIELD CTC VILLAGE OFFICE AT 575-586-0694 OR GATE CODE 7670.
RY 17 PREFERRED CALM WIND RY.
MOUNTAINS EAST AND SW OF ARPT.

Instrument Procedures

There are no published instrument procedures at N24.

Some nearby airports with instrument procedures:

KSKX - Taos Regional Airport (21 nm S)
KAXX - Angel Fire Airport (27 nm SE)
KALS - San Luis Valley Regional Airport/Bergman Field (40 nm N)
KMVI - Monte Vista Municipal Airport (49 nm NW)
KRTN - Raton Municipal Airport/Crews Field (53 nm E)
 
Loc | Ops | Rwys | IFR | FBO | Links
Com | Nav | Svcs | Stats | Notes

AirNav Hotels Sweepstakes
 
Area around N24 (Questa Municipal Airport Nr 2)
 
Road maps at: MapQuest Bing Google
 
Aerial photo
WARNING: Photo may not be current or correct
Aerial photo of N24 (Questa Municipal Airport Nr 2)
Photo by Brian D. Hinson.
Photo taken 30-May-2009

Do you have a better or more recent aerial photo of Questa Municipal Airport Nr 2 that you would like to share? If so, please send us your photo.

 
Sectional chart

 
Airport distance calculator
Flying to Questa Municipal Airport Nr 2? Find the distance to fly.

From to N24

Sunrise and sunset
Times for 25-Apr-2018
 Local
(UTC-6)
 Zulu
(UTC)
Morning civil twilight05:4911:49
Sunrise06:1612:16
Sunset19:4401:44
Evening civil twilight20:1202:12

Current date and time
Zulu (UTC)  25-Apr-2018 18:44:25
Local (UTC-6)  25-Apr-2018 12:44:25
 
METAR
KSKX 
21nm S 
251756Z AUTO 33011G20KT 300V020 10SM CLR 16/M17 A3031 RMK AO2 SLP223 T01561172 10156 20028 58013 $
KAXX 
27nm SE 
251835Z AUTO 26008KT 10SM CLR 13/M07 A3030 RMK AO2 T01271068
3CO4 
32nm NE 
SuperAWOS
251755Z AUTO 10007KT 10SM 08/M02 A3031
CO92 
32nm NE 
SuperAWOS
251755Z AUTO 27004KT 10SM 09/M11 A3036
KALS 
40nm N 
251752Z AUTO 31003KT 10SM CLR 11/M14 A3032 RMK AO2 SLP235 T01111144 10117 21067 58009
TAF
KALS 
40nm N 
251736Z 2518/2618 VRB04KT P6SM SKC FM260000 20008KT P6SM SCT200 FM260500 VRB04KT P6SM SCT250 FM261500 02007KT P6SM SCT250
NOTAMs
Click for the latest NOTAMs
NOTAMs are issued by the DoD/FAA and will open in a separate window not controlled by AirNav.

 

 
 

Would you like to see your business listed on this page?

 If your business provides an interesting product or service to pilots, flight crews, aircraft, or users of the Questa Municipal Airport Nr 2, you should consider listing it here.  To start the listing process, click on the button below
 
Add a business
 

Other Pages about Questa Municipal Airport Nr 2

Update a link
 
Copyright © AirNav, LLC. All rights reserved. Privacy Policy  Contact